sat.trackr.live / text

‹ back to catalog

KUIPER-00137

NORAD 65963 · 2025-228S

PAYLOAD ACTIVE UNKNOWN

§ Identity

Operator
Country
US
Launch date
2025-10-14
Launch site
AFETR
Launch vehicle
Mass (kg)
RCS (m²)

External: N2YO · Heavens-Above · Gunter

§ Orbital elements

Epoch: 2026-05-24T21:14:40.972416Z

Period
97.30 min
Inclination
51.9038°
Eccentricity
0.0000763
Mean motion
14.79937432 rev/d
Perigee alt
629.0 km
Apogee alt
630.1 km
Semi-major
7,007.7 km
B*
1.9930e-4
RAAN
8.6931°
Arg perigee
108.9426°
Mean anomaly
251.1620°
Rev number
3,472

§ Raw data

KUIPER-001371 65963U 25228S   26144.88519644  .00001299  00000+0  19930-3 0  99952 65963  51.9038   8.6931 0000763 108.9426 251.1620 14.79937432 34722

JSON: /api/v1/satellites/65963 · /tle

For live sub-satellite position, see the globe view (requires WebGL).

§ Visibility from observer

Set your observer location to see the next 7 days of passes ≥ 10°. The values pass through the URL so the page stays shareable.

No JS? Fill the form by hand. The geolocation button needs JavaScript.